DK7LH-6 Weather Reports


time (UTC)temp
C
wind
direction
speed
KPH
gust
KPH
rain 1hr
cm
rain 24hr
cm
rain mn
cm
humidity
%
barometer
mb
20260506013054 10 67 4.8 11.3 0.00 0.00 0.00 82 1007.6
20260506011524 10 48 4.8 14.5 0.00 0.03 0.00 82 1007.6
20260506010057 10 81 4.8 22.5 0.00 0.08 0.00 82 1007.7
20260506004527 10 13 1.6 6.4 0.00 0.25 0.00 82 1007.7
20260506003058 10 43 3.2 11.3 0.00 0.41 0.00 82 1007.9
20260506001528 10 29 1.6 4.8 0.00 0.46 0.00 82 1007.8
20260506000101 10 43 3.2 11.3 0.00 0.58 0.00 82 1008.0
20260505234531 10 37 3.2 11.3 0.00 0.58 0.00 82 1008.1
20260505233102 11 1 3.2 11.3 0.00 0.61 0.00 83 1008.2
20260505231532 11 22 1.6 1.6 0.00 0.61 0.00 83 1008.3
20260505230105 11 23 1.6 4.8 0.00 0.61 0.00 84 1008.4
20260505224535 11 36 6.4 16.1 0.00 0.61 0.00 84 1008.3
20260505223106 11 20 4.8 9.7 0.00 0.61 0.00 83 1008.3
20260505221536 11 24 6.4 9.7 0.00 0.61 0.00 82 1008.4
20260505220109 11 9 4.8 9.7 0.00 0.61 0.00 82 1008.6
20260505214539 11 16 4.8 9.7 0.00 0.61 0.61 83 1008.7
20260505213110 11 15 3.2 6.4 0.00 0.61 0.61 85 1008.8
20260505211540 11 7 1.6 4.8 0.00 0.61 0.61 85 1008.8
20260505210112 11 40 3.2 9.7 0.00 0.61 0.61 87 1008.8
20260505204542 11 24 4.8 11.3 0.00 0.61 0.61 87 1008.9
20260505203114 11 22 6.4 11.3 0.00 0.61 0.61 88 1008.9
20260505201545 11 31 6.4 9.7 0.00 0.61 0.61 88 1008.8
20260505200116 11 15 4.8 9.7 0.00 0.61 0.61 89 1008.8
20260505194546 11 5 6.4 14.5 0.00 0.61 0.61 89 1008.8
20260505193016 11 25 8.0 16.1 0.00 0.61 0.61 88 1008.5
20260505191548 11 9 8.0 11.3 0.00 0.61 0.61 89 1008.5
20260505190018 11 9 8.0 14.5 0.00 0.61 0.61 88 1008.5
20260505184550 11 16 8.0 16.1 0.00 0.61 0.61 87 1008.6
20260505183020 11 26 6.4 9.7 0.00 0.61 0.61 87 1008.5
20260505181552 11 2 8.0 16.1 0.00 0.61 0.61 87 1008.6
20260505180022 11 15 9.7 17.7 0.00 0.61 0.61 88 1008.6
20260505174554 11 355 9.7 14.5 0.00 0.61 0.61 88 1008.7
20260505173024 11 15 9.7 14.5 0.00 0.61 0.61 88 1008.7
20260505171556 11 4 11.3 16.1 0.00 0.61 0.61 87 1008.8
20260505170026 11 5 11.3 20.9 0.00 0.61 0.61 87 1008.9
20260505164558 11 2 6.4 14.5 0.00 0.61 0.61 87 1008.8
20260505163028 11 347 8.0 16.1 0.00 0.61 0.61 86 1008.9
20260505161600 11 5 14.5 22.5 0.00 0.61 0.61 86 1008.9
20260505153032 12 8 9.7 17.7 0.00 0.61 0.61 81 1009.3
20260505151604 12 355 9.7 17.7 0.00 0.61 0.61 81 1009.4
20260505130113 12 88 4.8 6.4 0.00 0.61 0.61 79 1010.0
20260505124543 12 103 3.2 6.4 0.00 0.61 0.61 78 1010.2
20260505123116 12 81 3.2 6.4 0.00 0.61 0.61 79 1010.3
20260505121546 12 81 4.8 6.4 0.00 0.61 0.61 78 1010.3
20260505120117 11 67 3.2 6.4 0.00 0.61 0.61 79 1010.3
20260505114547 11 353 4.8 16.1 0.00 0.61 0.61 78 1010.3
20260505113017 11 27 3.2 11.3 0.00 0.61 0.61 79 1010.3
20260505111549 11 40 3.2 9.7 0.00 0.61 0.61 79 1010.5
20260505101553 10 11 4.8 9.7 0.00 0.61 0.61 80 1010.8
20260505100023 10 11 6.4 17.7 0.00 0.61 0.61 81 1010.9
20260505094556 10 12 8.0 20.9 0.00 0.61 0.61 82 1010.9
20260505093026 9 9 8.0 20.9 0.00 0.61 0.61 83 1011.0
20260505091557 9 21 6.4 11.3 0.00 0.61 0.61 85 1011.0
20260505090027 9 32 1.6 4.8 0.00 0.61 0.61 87 1011.0
20260505084559 8 36 3.2 11.3 0.00 0.61 0.61 87 1011.1
20260505083029 8 32 1.6 6.4 0.00 0.61 0.61 86 1011.2
20260505081602 8 43 3.2 9.7 0.00 0.61 0.61 86 1011.2
20260505080031 8 36 1.6 4.8 0.00 0.61 0.61 87 1011.3
20260505074603 8 32 3.2 6.4 0.00 0.61 0.61 88 1011.3
20260505073033 8 26 3.2 11.3 0.00 0.61 0.61 88 1011.2
20260505071606 8 33 4.8 11.3 0.00 0.61 0.61 90 1011.0
20260505070036 8 11 3.2 11.3 0.00 0.61 0.61 91 1011.2
20260505064607 8 7 3.2 14.5 0.00 0.61 0.61 92 1011.2
20260505063037 8 87 3.2 11.3 0.00 0.61 0.61 92 1011.1
20260505061609 8 12 1.6 6.4 0.00 0.61 0.61 93 1011.2
20260505060039 8 30 6.4 14.5 0.00 0.61 0.61 93 1011.2
20260505054611 8 1 4.8 16.1 0.00 0.61 0.61 94 1011.1
20260505053112 8 11 1.6 6.4 0.00 0.61 0.61 93 1011.2
20260505051542 8 21 1.6 6.4 0.00 0.61 0.61 93 1011.0
20260505050114 8 6 4.8 14.5 0.00 0.61 0.61 92 1011.0
20260505041546 8 27 3.2 9.7 0.00 0.61 0.61 93 1011.0
20260505040016 8 1 6.4 16.1 0.00 0.61 0.61 95 1011.0
20260505034548 8 27 4.8 9.7 0.00 0.61 0.61 95 1011.0
20260505033018 8 26 4.8 11.3 0.00 0.61 0.61 96 1011.2
20260505031550 8 17 8.0 20.9 0.00 0.61 0.61 96 1011.2
20260505030020 8 12 6.4 11.3 0.00 0.61 0.61 97 1011.2
20260505024552 8 13 4.8 11.3 0.00 0.61 0.61 97 1011.3
20260505023022 8 20 6.4 14.5 0.00 0.61 0.61 97 1011.3
20260505021554 8 21 4.8 6.4 0.03 0.61 0.61 97 1011.5
20260505020024 8 19 3.2 6.4 0.08 0.61 0.61 97 1011.5
20260505014556 8 11 3.2 11.3 0.25 0.61 0.61 97 1011.7